weather.gov     
National Weather Service

Regional Weather Roundup
NWS Homepage
This page is being discontinued on March 12, 2014.
The same data is available at this site. Please update your bookmarks.
Thank you, and we apologize for the inconvenience.
Please send an email to SR-SRH.Webmaster@noaa.gov with any concerns.


Current Version
Previous Version:    01  02  03  04  05  06  07  08  09  10  11  12  13  14  15  16  17  18  19  20  21  22  23  24  25  26  27  28  29  30  
   31  32  33  34  35  36  37  38  39  40  41  42  43  44  45  46  47  48  49  50  51  52  53  54  55  56  57  58  59  60  
[Printable]
596
ASUS44 KFWD 190415
RWRTX
NORTH TEXAS HOURLY WEATHER ROUNDUP
NATIONAL WEATHER SERVICE FORT WORTH TX
1100 PM CDT FRI APR 18 2014

NOTE: "FAIR" INDICATES FEW OR NO CLOUDS BELOW 12,000 FEET WITH NO
SIGNIFICANT WEATHER AND/OR OBSTRUCTIONS TO VISIBILITY.

TXZ118-119-190500-
DALLAS/FORT WORTH METROPLEX

CITY           SKY/WX    TMP DP  RH WIND       PRES   REMARKS
DFW AIRPORT    MOCLDY    63  47  55 CALM      30.15R
DALLAS LOVE    MOCLDY    67  44  43 E7        30.15R
FTW MEACHAM    PTCLDY    64  51  62 E7        30.14S
DAL-EXECUTIVE  MOCLDY    61  47  59 E3        30.15R
FTW-ALLIANCE   MOCLDY    59  49  69 SE5       30.15R
FTW-NAS-JRB    MOCLDY    68  48  48 E10       30.18S
FTW-SPINKS     PTCLDY    59  49  68 SE3       30.16S
ARLINGTON      PTCLDY    56  50  80 CALM      30.16R
GRAND PRAIRIE  PTCLDY    64  45  48 SE3       30.17S
ADDISON        MOCLDY    66  45  46 E5        30.17S HAZE
MESQUITE       MOCLDY    62  45  53 CALM      30.16S
LANCASTER      MOCLDY    60  46  59 CALM      30.17R
$$

TXZ091>094-102>105-117-120-121-131>134-190500-
NORTH CENTRAL TEXAS

CITY           SKY/WX    TMP DP  RH WIND       PRES   REMARKS
SHRMAN/DENISON MOCLDY    63  43  48 SE8       30.17S
GAINESVILLE    MOCLDY    58  47  65 SE5       30.17S
BOWIE          MOCLDY    59  49  71 SE3       30.14S
BRIDGEPORT     MOCLDY    59  49  69 SE3       30.15F
DECATUR        MOCLDY    60  48  65 E7        30.15S
DENTON         MOCLDY    58  51  78 SE5       30.15R
MCKINNEY       MOCLDY    61  45  55 SE3       30.16R
GREENVILLE     MOCLDY    54  46  76 CALM      30.16S
ROCKWALL       MOCLDY    61  47  60 NE5       30.15R
TERRELL        MOCLDY    58  51  78 N5        30.16S
WAXAHACHIE     PTCLDY    56  46  69 CALM      30.17R
CLEBURNE       MOCLDY    63  52  67 E7        30.17R
GRANBURY       MOCLDY    60  52  75 SE3       30.16R
$$

TXZ083>090-098>101-113>116-127>130-139>142-154-155-190500-
WESTERN NORTH TEXAS

CITY           SKY/WX    TMP DP  RH WIND       PRES   REMARKS
WICHITA FALLS  MOCLDY    58  51  78 S8        30.12S
WF-KICKAPOO    MOCLDY    59  52  77 S7        30.14S
VERNON         MOCLDY    57  50  78 SE5       30.13S
ABILENE        MOCLDY    62  47  57 SE12      30.11F
ABILENE-DYESS  MOCLDY    64  48  56 SE10      30.11S
BRECKENRIDGE   MOCLDY    64  49  59 SE8       30.13S
GRAHAM         MOCLDY    61  50  67 E5        30.12F
MINERAL WELLS  MOCLDY    59  50  72 SE6       30.13R
STEPHENVILLE   PTCLDY    61  50  65 SE6       30.17S
COMANCHE       MOCLDY    60  51  71 SE7       30.15S
BROWNWOOD      CLOUDY    63  50  63 E9        30.13S
COLEMAN        PTCLDY    60  48  64 SE7       30.12F
BRADY          CLEAR     63  50  63 E6        30.13S
$$

TXZ143>147-156>162-174-175-190500-
CENTRAL TEXAS

CITY           SKY/WX    TMP DP  RH WIND       PRES   REMARKS
WACO           PTCLDY    60  52  74 E3        30.14R
WACO-MCGREGOR  PTCLDY    55  46  71 CALM      30.17R
HILLSBORO      PTCLDY    61  49  64 E8        30.16R
CORSICANA      MOCLDY    64  48  56 NE5       30.16R
MEXIA          PTCLDY    63  50  63 CALM      30.15R
HEARNE         CLEAR     58  54  85 CALM      30.15S
CAMERON        CLEAR     63  53  71 SE3       30.14S
TEMPLE         PTCLDY    61  48  63 NE5       30.18S
KILLEEN        MOCLDY    64  52  63 E8        30.15R
KILLEEN-SKYLRK PTCLDY    63  50  63 E3        30.15R
FORT HOOD      PTCLDY    65  52  62 E3        30.15S
GATESVILLE     PTCLDY    61  52  72 CALM      30.17S
HAMILTON       PTCLDY    62  50  65 MISG      30.16S
LAMPASAS       MOCLDY    61  53  75 CALM      30.15S
$$

TXZ095>097-106>112-122>126-135>138-148>153-164>167-190500-
EAST TEXAS

CITY           SKY/WX    TMP DP  RH WIND       PRES   REMARKS
PARIS          PTCLDY    57  46  67 SE7       30.17F
SULPHUR SPRNGS PTCLDY    62  47  58 SE6       30.18S
CLARKSVILLE    CLEAR     62  42  48 CALM      30.17F
MOUNT PLEASANT PTCLDY    59  50  73 CALM      30.19S
GILMER         PTCLDY    61  54  77 CALM      30.19S
MINEOLA        PTCLDY    57  52  82 MISG      30.17S HAZE
TYLER          PTCLDY    65  49  56 E7        30.15S
LONGVIEW       PTCLDY    61  52  72 E3        30.16S
MARSHALL       MOCLDY    57  53  86 CALM      30.19S
ATHENS         MOCLDY    55  50  82 CALM      30.14S
PALESTINE      MOCLDY    66  50  57 CALM      30.17S
JACKSONVILLE   MOCLDY    62  48  60 E3        30.18S
HENDERSON      PTCLDY    61  51  68 CALM      30.18S
NACOGDOCHES    PTCLDY    55  52  88 CALM      30.17S
LUFKIN         PTCLDY    64  54  69 E3        30.16S
$$

SUPPLEMENTAL OBSERVATIONS (CENTRAL)

CITY           SKY/WX    TMP DP  RH WIND       PRES   REMARKS
LAKE TEXOMA      N/A     61  43  51 S3          N/A
CADDO GRASSLND   N/A     55  48  76 S2          N/A
PAT MAYSE LAKE   N/A     59  48  67 SE3         N/A
GREENVILLE       N/A     63  45  51 E2          N/A
CEDAR HILL       N/A     61  48  63 SE2         N/A
ATHENS           N/A     59  50  72 E2          N/A
PALESTINE        N/A     57  52  82 CALM        N/A
MCGREGOR         N/A     57  52  82 CALM        N/A
TEMPLE           N/A     64  52  63 NE5         N/A
$$

SUPPLEMENTAL OBSERVATIONS (WEST)

CITY           SKY/WX    TMP DP  RH WIND       PRES   REMARKS
MILLERS CREEK    N/A     59  48  67 SE7         N/A
POSSUM KINGDOM   N/A     63  50  63 E5          N/A
LBJ GRASSLAND    N/A     63  48  59 E7          N/A
GRANBURY         N/A     57  50  77 S2          N/A
HAMBY            N/A     63  46  55 SE8         N/A
IVIE RESERVOIR   N/A     63  46  55 E7          N/A
COLORADO BEND    N/A     63  52  67 SE6         N/A
$$

SUPPLEMENTAL OBSERVATIONS (EAST)

CITY           SKY/WX    TMP DP  RH WIND       PRES   REMARKS
CLARKSVILLE      N/A     61  43  51 SE5         N/A
TEXARKANA        N/A     52  50  93 CALM        N/A
LINDEN           N/A     55  50  82 CALM        N/A
CADDO LAKE       N/A     54  52  94 CALM        N/A
GILMER           N/A     57  52  82 CALM        N/A
HENDERSON        N/A     63  52  67 E6          N/A
N SABINE NF      N/A     55  52  88 MISG        N/A
S SABINE NF      N/A     55  52  88 CALM        N/A
$$

SUPPLEMENTAL OBSERVATIONS ARE A COLLECTION OF AUTOMATED INSTRUMENTS
THAT ARE MAINTAINED BY A VARIETY OF FEDERAL AND STATE AGENCIES.
CERTAIN ELEMENTS...SUCH AS HUMIDITY VALUES AND SUSTAINED WIND
SPEEDS...MAY BE APPROXIMATED.





U.S. Dept. of Commerce
NOAA National Weather Service
1325 East West Highway
Silver Spring, MD 20910
E-mail: w-nws.webmaster@noaa.gov
Page last modified: May 16, 2007
NATIONAL WEATHER SERVICE: for Safety, for Work, for Fun - FOR LIFE